TimeMDT,TemperatureF,Dew PointF,Humidity,Sea Level PressureIn,VisibilityMPH,Wind Direction,Wind SpeedMPH,Gust SpeedMPH,PrecipitationIn,Events,Conditions,WindDirDegrees,DateUTC
12:15 AM,44.6,30.2,57,29.92,10.0,NW,6.9,-,N/A,,Clear,310,2013-10-08 06:15:00
12:35 AM,44.6,30.2,57,29.92,10.0,WNW,5.8,-,N/A,,Clear,300,2013-10-08 06:35:00
12:55 AM,44.6,30.2,57,29.92,10.0,WNW,4.6,-,N/A,,Clear,300,2013-10-08 06:55:00
1:15 AM,42.8,30.2,61,29.91,10.0,NW,5.8,-,N/A,,Clear,310,2013-10-08 07:15:00
1:35 AM,42.8,30.2,61,29.90,10.0,WNW,5.8,-,N/A,,Clear,300,2013-10-08 07:35:00
1:55 AM,42.8,30.2,61,29.91,10.0,NW,5.8,-,N/A,,Clear,310,2013-10-08 07:55:00
2:15 AM,42.8,28.4,57,29.91,10.0,NW,5.8,-,N/A,,Clear,310,2013-10-08 08:15:00
2:35 AM,42.8,28.4,57,29.91,10.0,NNW,10.4,-,N/A,,Clear,330,2013-10-08 08:35:00
2:55 AM,41.0,30.2,65,29.91,10.0,NNW,8.1,-,N/A,,Clear,330,2013-10-08 08:55:00
3:15 AM,41.0,28.4,61,29.90,10.0,NW,8.1,-,N/A,,Clear,320,2013-10-08 09:15:00
3:35 AM,41.0,28.4,61,29.90,10.0,NW,6.9,-,N/A,,Clear,320,2013-10-08 09:35:00
3:55 AM,41.0,28.4,61,29.90,10.0,NNW,10.4,-,N/A,,Clear,330,2013-10-08 09:55:00
4:15 AM,41.0,28.4,61,29.90,10.0,NW,8.1,-,N/A,,Clear,320,2013-10-08 10:15:00
4:35 AM,39.2,28.4,65,29.90,10.0,NW,5.8,-,N/A,,Clear,320,2013-10-08 10:35:00
4:55 AM,37.4,28.4,70,29.91,10.0,Calm,Calm,-,N/A,,Clear,0,2013-10-08 10:55:00
5:15 AM,37.4,28.4,70,29.91,10.0,NW,5.8,-,N/A,,Clear,320,2013-10-08 11:15:00
5:35 AM,37.4,28.4,70,29.91,10.0,NNW,8.1,-,N/A,,Clear,330,2013-10-08 11:35:00
5:55 AM,37.4,28.4,70,29.91,10.0,Calm,Calm,-,N/A,,Clear,0,2013-10-08 11:55:00
6:15 AM,37.4,28.4,70,29.92,10.0,NW,3.5,-,N/A,,Clear,320,2013-10-08 12:15:00
6:35 AM,35.6,28.4,75,29.91,10.0,Calm,Calm,-,N/A,,Clear,0,2013-10-08 12:35:00
6:47 AM,35.6,28.4,75,29.91,10.0,Calm,Calm,-,N/A,,Clear,0,2013-10-08 12:47:00
6:55 AM,33.8,30.2,87,29.91,10.0,Calm,Calm,-,N/A,,Clear,0,2013-10-08 12:55:00
7:47 AM,33.8,26.6,75,29.92,10.0,Calm,Calm,-,N/A,,Partly Cloudy,0,2013-10-08 13:47:00
8:47 AM,30.2,26.6,86,29.92,10.0,WNW,5.8,-,N/A,,Partly Cloudy,290,2013-10-08 14:47:00
9:47 AM,39.2,30.2,70,29.93,10.0,ESE,8.1,-,N/A,,Partly Cloudy,120,2013-10-08 15:47:00
10:47 AM,44.6,30.2,57,29.92,10.0,ESE,11.5,-,N/A,,Partly Cloudy,120,2013-10-08 16:47:00
11:55 AM,48.2,24.8,40,29.90,10.0,SSE,11.5,-,N/A,,Partly Cloudy,150,2013-10-08 17:55:00
12:47 PM,51.8,28.4,41,29.90,10.0,ESE,11.5,-,N/A,,Partly Cloudy,120,2013-10-08 18:47:00
1:47 PM,51.8,26.6,38,29.88,10.0,SE,5.8,-,N/A,,Partly Cloudy,130,2013-10-08 19:47:00
2:47 PM,53.6,26.6,35,29.86,10.0,South,10.4,17.3,N/A,,Partly Cloudy,190,2013-10-08 20:47:00
3:47 PM,51.8,28.4,41,29.85,10.0,SE,11.5,18.4,N/A,,Scattered Clouds,130,2013-10-08 21:47:00
4:47 PM,51.8,28.4,41,29.86,10.0,SSW,11.5,-,N/A,,Scattered Clouds,210,2013-10-08 22:47:00
5:55 PM,48.2,28.4,46,29.86,10.0,SE,10.4,18.4,N/A,,Mostly Cloudy,130,2013-10-08 23:55:00
6:50 PM,48.2,28.4,46,29.86,10.0,ESE,6.9,-,N/A,,Mostly Cloudy,120,2013-10-09 00:50:00
7:47 PM,44.6,30.2,57,29.87,10.0,SE,9.2,-,N/A,,Overcast,130,2013-10-09 01:47:00
8:47 PM,44.6,30.2,57,29.88,10.0,Calm,Calm,-,N/A,,Overcast,0,2013-10-09 02:47:00
9:47 PM,42.8,30.2,61,29.88,10.0,NW,10.4,-,N/A,,Mostly Cloudy,310,2013-10-09 03:47:00
10:47 PM,44.6,30.2,57,29.87,10.0,NW,9.2,-,N/A,,Mostly Cloudy,310,2013-10-09 04:47:00
11:15 PM,42.8,30.2,61,29.87,10.0,NNW,5.8,-,N/A,,Clear,330,2013-10-09 05:15:00
11:35 PM,41.0,30.2,65,29.87,10.0,NW,3.5,-,N/A,,Clear,310,2013-10-09 05:35:00
11:55 PM,41.0,30.2,65,29.88,10.0,SE,4.6,-,N/A,,Clear,130,2013-10-09 05:55:00